Evergreen, AL

11:39 PM CDT on October 17, 2017 (GMT -0500)
Middleton

Weather History for KGZH - March, 2012

Change the Weather History Date:

Friday, March 2, 2012

  Actual Average (KPRN) Record (KPRN)
Temperature  
Mean Temperature 76 °F -  
Max Temperature 82 °F 70 °F 84 °F (1932)
Min Temperature 69 °F 43 °F 18 °F (1980)
Cooling Degree Days 10    
Growing Degree Days 26 (Base 50)    
Moisture  
Dew Point 66 °F    
Average Humidity 78    
Maximum Humidity 90    
Minimum Humidity 54    
Precipitation  
Precipitation 0.05 in - - ()
Sea Level Pressure  
Sea Level Pressure 29.87 in    
Wind  
Wind Speed 10 mph (SSW)    
Max Wind Speed 21 mph    
Max Gust Speed 30 mph    
Visibility 9 miles    
Events Rain    
Averages and records for this station are not official NWS values.
T = Trace of Precipitation, MM = Missing Value Source: NWS Daily Summary

Daily Weather History Graph

Daily Weather History Graph

Search for Another Location

Airport or City:

Trip Planner

Search our weather history database for the weather conditions in past years. The results will help you decide how hot, cold, wet, or windy it might be!

Date:

Astronomy

Mar. 02, 2012 Rise Set
Actual Time 6:13 AM CST 5:47 PM CST
Civil Twilight 5:48 AM CST 6:11 PM CST
Nautical Twilight 5:20 AM CST 6:39 PM CST
Astronomical Twilight 4:52 AM CST 7:08 PM CST
Moon 12:15 PM CST (3/2) 1:46 AM CST (3/2)
Length of Visible Light 12h 22m
Length of Day
11h 34m
Waxing Gibbous, 66% of the Moon is Illuminated
Mar 2
Waxing Gibbous
Mar 8
Full
Mar 14
Last Quarter
Mar 22
New
Mar 30
First Quarter

Hourly Weather History & Observations

Time (CST) Temp. Heat Index Dew Point Humidity Pressure Visibility Wind Dir Wind Speed Gust Speed Precip Events Conditions
12:49 AM 69.8 °F - 64.4 °F 83% 29.92 in 8.0 mi SSW 10.4 mph - N/A   Overcast
12:53 AM 69.1 °F - 64.9 °F 87% 29.91 in 8.0 mi SSW 10.4 mph - N/A   Overcast
12:56 AM 69.8 °F - 64.4 °F 83% 29.92 in 8.0 mi SSW 8.1 mph - N/A   Overcast
1:17 AM 69.8 °F - 64.4 °F 83% 29.93 in 8.0 mi SW 9.2 mph - N/A   Overcast
1:44 AM 69.8 °F - 64.4 °F 83% 29.91 in 8.0 mi South 9.2 mph - N/A   Overcast
1:53 AM 69.1 °F - 64.9 °F 87% 29.90 in 8.0 mi South 8.1 mph - N/A   Overcast
2:53 AM 69.1 °F - 64.9 °F 87% 29.90 in 8.0 mi SSW 5.8 mph - N/A   Overcast
3:12 AM 69.8 °F - 64.4 °F 83% 29.90 in 8.0 mi South 5.8 mph - N/A   Overcast
3:20 AM 69.8 °F - 64.4 °F 83% 29.90 in 7.0 mi South 5.8 mph - N/A   Overcast
3:44 AM 69.8 °F - 64.4 °F 83% 29.90 in 7.0 mi South 6.9 mph - N/A   Overcast
3:53 AM 69.1 °F - 64.9 °F 87% 29.89 in 7.0 mi South 8.1 mph - N/A   Overcast
4:53 AM 69.1 °F - 64.9 °F 87% 29.90 in 7.0 mi South 6.9 mph - N/A   Overcast
5:53 AM 69.1 °F - 64.9 °F 87% 29.91 in 7.0 mi South 5.8 mph - N/A   Mostly Cloudy
6:12 AM 69.8 °F - 66.2 °F 88% 29.92 in 8.0 mi SSW 3.5 mph - N/A   Overcast
6:53 AM 69.1 °F - 66.0 °F 90% 29.91 in 5.0 mi South 5.8 mph - N/A   Mostly Cloudy
7:53 AM 71.1 °F - 66.9 °F 87% 29.93 in 7.0 mi South 8.1 mph - N/A   Overcast
8:17 AM 71.6 °F - 66.2 °F 83% 29.94 in 9.0 mi South 8.1 mph - N/A   Overcast
8:53 AM 73.0 °F - 66.9 °F 81% 29.93 in 10.0 mi South 10.4 mph - N/A   Overcast
9:03 AM 73.4 °F - 66.2 °F 78% 29.94 in 10.0 mi SSW 10.4 mph - N/A   Mostly Cloudy
9:15 AM 73.4 °F - 66.2 °F 78% 29.94 in 10.0 mi South 9.2 mph - N/A   Mostly Cloudy
9:53 AM 75.0 °F - 66.0 °F 73% 29.93 in 10.0 mi South 13.8 mph - N/A   Mostly Cloudy
10:04 AM 75.2 °F - 66.2 °F 73% 29.93 in 10.0 mi South 16.1 mph 20.7 mph N/A   Mostly Cloudy
10:53 AM 78.1 °F - 64.0 °F 62% 29.90 in 10.0 mi South 13.8 mph 24.2 mph N/A   Scattered Clouds
11:53 AM 80.1 °F 81.7 °F 64.0 °F 58% 29.88 in 10.0 mi South 16.1 mph 27.6 mph N/A   Overcast
12:53 PM 81.0 °F 82.7 °F 64.9 °F 58% 29.85 in 10.0 mi SSW 16.1 mph 23.0 mph N/A   Mostly Cloudy
1:53 PM 82.0 °F 83.4 °F 64.0 °F 54% 29.83 in 10.0 mi South 16.1 mph 26.5 mph N/A   Mostly Cloudy
2:53 PM 79.0 °F - 64.9 °F 62% 29.81 in 10.0 mi South 18.4 mph 29.9 mph N/A   Mostly Cloudy
3:53 PM 78.1 °F - 68.0 °F 71% 29.79 in 10.0 mi South 15.0 mph 18.4 mph 0.00 in Rain Light Rain
4:02 PM 77.0 °F - 68.0 °F 74% 29.80 in 10.0 mi South 20.7 mph 28.8 mph 0.00 in   Overcast
4:15 PM 77.0 °F - 66.2 °F 69% 29.80 in 10.0 mi South 12.7 mph - 0.00 in   Overcast
4:53 PM 77.0 °F - 66.9 °F 71% 29.80 in 10.0 mi SSW 13.8 mph - 0.00 in   Mostly Cloudy
5:53 PM 73.0 °F - 66.0 °F 79% 29.80 in 7.0 mi SSW 12.7 mph 21.9 mph 0.03 in Rain Rain
6:53 PM 73.0 °F - 66.0 °F 79% 29.80 in 10.0 mi South 9.2 mph - 0.02 in   Partly Cloudy
7:53 PM 73.0 °F - 66.0 °F 79% 29.79 in 10.0 mi SSW 15.0 mph 21.9 mph N/A   Partly Cloudy
8:53 PM 72.0 °F - 66.0 °F 81% 29.79 in 10.0 mi SSW 10.4 mph - N/A   Mostly Cloudy
9:32 PM 71.6 °F - 66.2 °F 83% 29.79 in 10.0 mi SSW 12.7 mph 19.6 mph N/A   Scattered Clouds
9:53 PM 72.0 °F - 66.0 °F 81% 29.79 in 10.0 mi SSW 10.4 mph - N/A   Mostly Cloudy
10:53 PM 72.0 °F - 66.0 °F 81% 29.77 in 10.0 mi SSW 8.1 mph - N/A   Partly Cloudy
11:53 PM 71.1 °F - 66.0 °F 84% 29.75 in 10.0 mi South 10.4 mph - N/A   Partly Cloudy